Orbital Elements at Epoch 2459200.5 (2020-Dec-17.0) TDB
Reference: JPL 33 (heliocentric ecliptic J2000)
Element | Value | Uncertainty (1-sigma) | Units |
e | .15546245961613 | 1.6848e-08 | |
a | 2.231560100286033 | 5.7189e-09 | au |
q | 1.884636278314348 | 3.8624e-08 | au |
i | 4.959764373164181 | 7.7548e-07 | deg |
node | 270.1768387531404 | 9.5294e-06 | deg |
peri | 174.8928839560143 | 1.0247e-05 | deg |
M | 101.513066760732 | 7.2652e-06 | deg |
tp | 2458857.154977374066 (2020-Jan-08.65497737) | 2.4326e-05 | TDB |
period | 1217.618697666514 3.33 | 4.6807e-06 1.282e-08 | d yr |
n | .2956590603363076 | 1.1365e-09 | deg/d |
Q | 2.578483922257717 | 6.608e-09 | au |
|
| | Orbit Determination Parameters
Additional Information
|